TimeCDT,TemperatureF,Dew PointF,Humidity,Sea Level PressureIn,VisibilityMPH,Wind Direction,Wind SpeedMPH,Gust SpeedMPH,PrecipitationIn,Events,Conditions,WindDirDegrees,DateUTC
12:51 AM,82.0,68.0,62,30.01,10.0,SSW,8.1,-,N/A,,Clear,200,2013-09-05 05:51:00
1:51 AM,80.1,69.1,69,30.01,10.0,Calm,Calm,-,N/A,,Clear,0,2013-09-05 06:51:00
2:51 AM,78.1,69.1,74,30.01,10.0,SE,4.6,-,N/A,,Clear,130,2013-09-05 07:51:00
3:51 AM,78.1,69.1,74,30.01,10.0,SE,4.6,-,N/A,,Clear,130,2013-09-05 08:51:00
4:51 AM,77.0,69.1,76,30.01,10.0,Calm,Calm,-,N/A,,Clear,0,2013-09-05 09:51:00
5:51 AM,75.0,68.0,79,30.04,10.0,North,3.5,-,N/A,,Clear,10,2013-09-05 10:51:00
6:51 AM,73.9,69.1,85,30.05,10.0,Calm,Calm,-,N/A,,Clear,0,2013-09-05 11:51:00
7:51 AM,75.9,70.0,82,30.07,10.0,Calm,Calm,-,N/A,,Clear,0,2013-09-05 12:51:00
8:51 AM,81.0,70.0,69,30.07,10.0,South,5.8,-,N/A,,Clear,180,2013-09-05 13:51:00
9:51 AM,84.9,69.1,59,30.08,10.0,Calm,Calm,-,N/A,,Clear,0,2013-09-05 14:51:00
10:51 AM,89.1,69.1,52,30.09,10.0,SSE,4.6,-,N/A,,Clear,160,2013-09-05 15:51:00
11:51 AM,91.9,68.0,45,30.08,10.0,SSE,6.9,-,N/A,,Clear,160,2013-09-05 16:51:00
12:51 PM,93.9,66.0,40,30.06,10.0,ESE,8.1,-,N/A,,Clear,120,2013-09-05 17:51:00
1:51 PM,97.0,64.0,34,30.04,10.0,South,6.9,-,N/A,,Clear,180,2013-09-05 18:51:00
2:51 PM,97.0,64.0,34,30.01,10.0,Calm,Calm,-,N/A,,Clear,0,2013-09-05 19:51:00
3:51 PM,98.1,64.0,33,29.98,10.0,South,4.6,-,N/A,,Clear,190,2013-09-05 20:51:00
4:51 PM,98.1,63.0,31,29.97,10.0,SE,4.6,16.1,N/A,,Clear,140,2013-09-05 21:51:00
5:51 PM,97.0,66.0,36,29.97,10.0,South,13.8,-,N/A,,Partly Cloudy,170,2013-09-05 22:51:00
6:51 PM,93.9,66.0,40,29.97,10.0,South,10.4,-,N/A,,Mostly Cloudy,180,2013-09-05 23:51:00
7:51 PM,89.1,66.0,46,29.99,10.0,South,5.8,-,N/A,,Clear,190,2013-09-06 00:51:00
8:51 PM,84.0,66.0,55,30.00,10.0,SW,3.5,-,N/A,,Clear,220,2013-09-06 01:51:00
9:51 PM,84.0,66.0,55,30.01,10.0,Calm,Calm,-,N/A,,Clear,0,2013-09-06 02:51:00
10:51 PM,86.0,66.9,53,30.04,10.0,South,9.2,-,N/A,,Clear,170,2013-09-06 03:51:00
11:51 PM,82.9,69.1,63,30.05,10.0,SSE,9.2,-,N/A,,Clear,160,2013-09-06 04:51:00